Location: Brienzwiler
(46.7508°N, 8.1014°E)
Time: 01:02:52
(UTC+00:00)

Meteor 2-3 Rocket - Pass Details

Date: 05 July 2020
Orbit: 843 x 884 km, 81.2° (Epoch: 11 August)

Event Time Altitude Azimuth Distance (km) Brightness Sun altitude
Exits shadow 23:21:02 41° 181° (S) 1,231 4.0 -20.5°
Maximum altitude 23:23:08 82° 100° (E) 874 3.7 -20.6°
Drops below altitude 10° 23:28:52 10° 13° (NNE) 2,520 7.3 -20.6°
Sets 23:31:19 0° 12° (NNE) 3,468 8.3 -20.6°
